Waarnemingen

Advertentie
Mijn weer
Langres, Frankrijk (7283): temperatuur & dauwpunt: 21.02.2020 06:00:00 - 27.02.2020 06:00:00 (CET)Langres, Frankrijk (7283): temperatuur 5cm: 21.02.2020 06:00:00 - 27.02.2020 06:00:00 (CET)Langres, Frankrijk (7283): windsnelheid & windstoten: 21.02.2020 06:00:00 - 27.02.2020 06:00:00 (CET)Langres, Frankrijk (7283): windrichting: 21.02.2020 06:00:00 - 27.02.2020 06:00:00 (CET)Langres, Frankrijk (7283): luchtdruk: 21.02.2020 06:00:00 - 27.02.2020 06:00:00 (CET)Langres, Frankrijk (7283): zicht: 21.02.2020 06:00:00 - 27.02.2020 06:00:00 (CET)Langres, Frankrijk (7283): Zonneschijnduur: 21.02.2020 06:00:00 - 27.02.2020 06:00:00 (CET)Langres, Frankrijk (7283): neerslag: 21.02.2020 06:00:00 - 27.02.2020 06:00:00 (CET)
Datum & Tijd tt [°C] td [°C] tt 5cm [°C] ff [km/u] ff [kn] fx [km/u] fx [kn] dd ppp [hPa] vv [km] sd [min] rr [mm]
27.02.2020 06:00:00 -0,8 -0,9 -1,2 19 10 30 16 Z 1010,8 3,5 0 0,0
27.02.2020 05:00:00 -0,6 -0,9 -1,3 11 6 22 12 Z 1011,9 10 0 0,0
27.02.2020 04:00:00 -0,1 -0,7 -1,5 11 6 23 12 ZZW 1012,6 20 0 0,0
27.02.2020 03:00:00 0,5 -0,2 -0,1 10 6 24 13 ZW 1013,6 20 0 0,0
27.02.2020 02:00:00 0,5 -0,2 -1,0 14 7 24 13 WZW 1013,9 20 0 0,2
27.02.2020 01:00:00 0,2 -0,4 -1,1 13 7 26 14 WZW 1014,0 20 0 0,2
27.02.2020 00:00:00 0,2 -0,5 -1,5 13 7 23 12 ZW 1014,4 20 0 0,0
26.02.2020 23:00:00 0,3 -0,4 -1,3 13 7 29 15 ZW 1014,1 20 0 0,0
26.02.2020 22:00:00 0,4 0,0 -1,5 20 11 32 17 WZW 1013,8 20 0 0,2
26.02.2020 21:00:00 -0,1 -0,5 -1,4 14 7 29 16 WZW 1013,3 20 0 0,0
26.02.2020 20:00:00 0,0 -0,3 0,0 14 7 40 22 W 1013,2 20 0 0,4
26.02.2020 19:00:00 0,1 -0,2 0,1 16 8 60 33 W 1012,5 7 0 0,0
26.02.2020 18:00:00 2,2 0,1 1,0 22 12 41 22 W 1010,9 20 14 0,0
26.02.2020 17:00:00 1,1 0,2 0,3 13 7 33 18 W 1010,6 9 1 0,2
26.02.2020 16:00:00 2,1 -0,3 2,8 14 8 39 21 WZW 1009,9 20 21 0,0
26.02.2020 15:00:00 2,0 -0,3 1,4 18 10 55 30 W 1009,5 20 26 0,2
26.02.2020 14:00:00 1,8 -0,6 0,8 34 18 54 29 W 1008,7 20 32 0,6
26.02.2020 13:00:00 1,1 0,4 0,1 21 11 66 36 W 1008,4 20 26 0,4
26.02.2020 12:00:00 0,7 0,3 0,1 27 15 63 34 W 1007,2 20 26 0,2
26.02.2020 11:00:00 1,8 -0,1 0,1 27 15 50 27 W 1006,2 17 20 0,2
26.02.2020 10:00:00 0,2 -0,4 0,1 26 14 48 26 W 1006,4 2,2 0 0,2
26.02.2020 09:00:00 0,2 -1,1 -0,4 28 15 61 33 W 1005,8 20 0 0,0
26.02.2020 08:00:00 -0,1 -1,1 -0,4 27 15 51 28 W 1004,8 19 0 0,0
26.02.2020 07:00:00 0,3 -0,4 0,1 22 12 41 22 WZW 1003,9 20 0 0,2
26.02.2020 06:00:00 0,9 0,2 0,2 19 11 42 23 ZW 1003,9 13 0 0,0
26.02.2020 05:00:00 1,6 -0,3 0,8 20 11 50 27 WZW 1004,4 20 0 0,0
26.02.2020 04:00:00 1,7 -0,4 0,3 23 12 52 28 WZW 1005,0 20 0 0,0
26.02.2020 03:00:00 1,6 -0,3 0,4 29 16 56 30 WZW 1005,3 20 0 0,0
26.02.2020 02:00:00 1,8 0,2 0,4 30 16 57 31 WZW 1005,2 20 0 0,0
26.02.2020 01:00:00 1,4 0,1 0,1 29 16 51 28 W 1004,6 20 0 0,4
26.02.2020 00:00:00 1,6 0,1 0,2 38 20 64 35 W 1004,9 2,9 0 1,4
25.02.2020 23:00:00 3,9 2,7 3,0 26 14 63 34 WZW 1003,2 20 0 1,2
25.02.2020 22:00:00 5,3 3,1 4,2 26 14 49 26 WZW 1003,7 18 0 0,0
25.02.2020 21:00:00 5,7 2,5 4,3 19 10 46 25 WZW 1004,2 20 0 0,0
25.02.2020 20:00:00 5,6 2,2 4,2 19 10 35 19 ZW 1004,6 20 0 0,0
25.02.2020 19:00:00 5,4 2,2 3,5 15 8 32 17 ZW 1005,3 20 0 0,0
25.02.2020 18:00:00 5,6 2,2 4,4 20 11 43 23 ZW 1005,4 20 43 0,0
25.02.2020 17:00:00 6,5 2,2 5,3 19 10 48 26 WZW 1006,0 20 25 0,0
25.02.2020 16:00:00 7,3 3,0 6,1 23 13 55 30 W 1006,3 20 33 0,2
25.02.2020 15:00:00 6,0 5,1 6,0 29 16 53 29 W 1007,1 7 0 0,8
25.02.2020 14:00:00 8,4 7,5 8,3 20 11 49 26 W 1006,3 14 13 0,2
25.02.2020 13:00:00 7,9 7,1 7,8 23 12 42 23 WZW 1007,1 14 0 0,0
25.02.2020 12:00:00 7,2 6,6 6,8 23 12 43 23 ZW 1008,0 5 0 0,2
25.02.2020 11:00:00 6,3 6,0 6,1 19 10 38 20 ZW 1008,6 3,8 0 0,2
25.02.2020 10:00:00 6,2 5,6 5,8 19 10 39 21 ZW 1009,3 19 0 0,8
25.02.2020 09:00:00 5,9 5,3 5,6 19 10 35 19 ZW 1009,9 15 0 1,0
25.02.2020 08:00:00 5,8 5,2 5,4 18 10 38 21 ZW 1010,1 13 0 0,6
25.02.2020 07:00:00 5,8 4,9 5,4 18 10 41 22 ZW 1010,7 11 0 0,2
25.02.2020 06:00:00 5,7 4,7 5,4 16 9 39 21 ZW 1011,0 18 0 0,0
25.02.2020 05:00:00 5,6 4,6 5,5 19 10 39 21 ZW 1011,6 17 0 0,0
25.02.2020 04:00:00 5,7 4,0 5,5 19 10 40 22 WZW 1012,1 20 0 0,0
25.02.2020 03:00:00 5,7 3,7 5,3 23 12 44 24 WZW 1012,6 20 0 0,0
25.02.2020 02:00:00 5,8 3,8 5,6 19 11 37 20 WZW 1013,2 20 0 0,0
25.02.2020 01:00:00 6,1 3,8 5,7 19 10 41 22 WZW 1014,0 20 0 0,0
25.02.2020 00:00:00 6,4 4,2 5,2 23 12 39 21 WZW 1014,7 20 0 0,0
24.02.2020 23:00:00 6,8 4,6 5,7 22 12 37 20 WZW 1015,3 20 0 0,0
24.02.2020 22:00:00 7,8 5,8 6,6 19 10 35 19 W 1015,7 20 0 0,0
24.02.2020 21:00:00 10,1 5,3 7,9 14 8 32 18 WZW 1015,5 20 0 0,0
24.02.2020 20:00:00 10,9 4,8 9,0 17 9 37 20 ZW 1015,4 20 0 0,0
24.02.2020 19:00:00 11,7 5,6 9,8 20 11 38 21 ZW 1015,4 20 0 0,0
24.02.2020 18:00:00 12,7 6,7 10,9 20 11 44 24 ZW 1015,4 20 50 0,0
24.02.2020 17:00:00 14,0 6,6 14,2 23 12 43 23 ZW 1015,6 20 60 0,0
24.02.2020 16:00:00 14,6 7,9 16,9 20 11 36 20 ZZW 1016,7 20 55 0,0
24.02.2020 15:00:00 14,0 8,4 17,2 18 10 37 20 ZZW 1018,1 20 60 0,0
24.02.2020 14:00:00 13,5 8,8 14,2 21 12 36 20 ZZW 1019,2 20 28 0,0
24.02.2020 13:00:00 12,4 8,5 13,9 18 10 35 19 ZZW 1020,8 20 35 0,0
24.02.2020 12:00:00 10,4 8,3 10,5 16 9 31 17 ZZW 1022,6 20 0 0,0
24.02.2020 11:00:00 9,3 7,9 9,0 17 9 30 16 ZZW 1023,6 20 1 0,0
24.02.2020 10:00:00 8,5 7,4 8,5 13 7 31 17 ZW 1024,3 20 0 0,0
24.02.2020 09:00:00 8,1 7,2 7,9 17 9 29 16 ZW 1024,8 20 0 0,0
24.02.2020 08:00:00 7,9 7,5 7,7 15 8 29 15 ZW 1025,3 20 0 0,0
24.02.2020 07:00:00 7,9 7,8 7,8 12 6 29 16 ZW 1025,9 4,5 0 0,0
24.02.2020 06:00:00 8,1 7,7 7,9 16 9 33 18 ZW 1026,2 20 0 0,0
24.02.2020 05:00:00 8,1 7,8 8,0 11 6 26 14 WZW 1026,9 15 0 0,0
24.02.2020 04:00:00 8,3 8,0 8,1 14 8 29 16 WZW 1026,8 11 0 0,0
24.02.2020 03:00:00 8,4 8,1 8,2 19 10 39 21 WZW 1027,0 20 0 0,0
24.02.2020 02:00:00 8,6 8,3 8,4 20 11 36 19 WZW 1027,7 9 0 0,0
24.02.2020 01:00:00 8,7 8,2 8,4 22 12 38 20 WZW 1028,0 6 0 0,0
24.02.2020 00:00:00 8,8 8,3 8,5 20 11 37 20 WZW 1028,0 4,7 0 0,0
23.02.2020 23:00:00 8,9 8,4 8,6 19 11 43 23 WZW 1027,7 4,1 0 0,0
23.02.2020 22:00:00 9,4 8,3 8,9 22 12 45 25 WZW 1027,7 7 0 0,0
23.02.2020 21:00:00 10,3 8,1 10,0 25 14 47 25 WZW 1027,0 20 0 0,0
23.02.2020 20:00:00 10,7 8,1 10,4 22 12 42 23 WZW 1026,8 20 0 0,0
23.02.2020 19:00:00 11,3 7,8 10,8 20 11 39 21 WZW 1026,7 20 0 0,0
23.02.2020 18:00:00 11,6 7,5 10,9 21 12 42 23 ZW 1025,7 20 0 0,0
23.02.2020 17:00:00 12,2 7,5 11,5 19 11 41 22 WZW 1025,4 20 0 0,0
23.02.2020 16:00:00 11,8 6,7 11,9 22 12 45 24 WZW 1025,4 20 0 0,0
23.02.2020 15:00:00 12,2 6,7 11,6 25 13 48 26 WZW 1025,6 20 0 0,0
23.02.2020 14:00:00 11,1 6,0 11,2 21 12 36 19 ZZW 1025,7 20 0 0,0
23.02.2020 13:00:00 10,5 5,5 11,7 20 11 38 21 ZZW 1026,5 20 4 0,0
23.02.2020 12:00:00 9,7 5,7 11,1 21 11 36 20 ZZW 1027,2 20 8 0,0
23.02.2020 11:00:00 8,7 5,4 8,9 15 8 34 18 ZZW 1027,7 20 0 0,0
23.02.2020 10:00:00 8,0 4,0 7,8 16 9 41 22 ZW 1028,3 20 0 0,0
23.02.2020 09:00:00 7,5 3,7 7,1 20 11 37 20 ZW 1028,1 20 2 0,0
23.02.2020 08:00:00 7,3 3,7 6,9 19 11 49 26 ZW 1028,4 20 0 0,0
23.02.2020 07:00:00 7,5 4,3 6,9 21 12 40 22 ZW 1028,3 20 0 0,0
23.02.2020 06:00:00 7,6 4,9 7,0 21 12 39 21 ZW 1028,5 20 0 0,0
23.02.2020 05:00:00 7,7 5,0 7,5 17 9 31 17 ZW 1029,0 20 0 0,0
23.02.2020 04:00:00 7,9 5,2 7,6 16 9 29 16 WZW 1029,5 20 0 0,0
23.02.2020 03:00:00 8,0 5,1 7,7 16 9 37 20 ZW 1029,7 20 0 0,0
23.02.2020 02:00:00 8,2 4,8 7,9 21 11 36 19 WZW 1030,4 20 0 0,0
23.02.2020 01:00:00 8,4 4,2 7,9 19 11 36 19 WZW 1030,4 20 0 0,0
23.02.2020 00:00:00 8,5 3,5 7,7 19 10 33 18 WZW 1030,6 20 0 0,0
22.02.2020 23:00:00 8,7 2,5 8,2 20 11 39 21 WZW 1031,2 20 0 0,0
22.02.2020 22:00:00 9,1 1,3 8,1 23 12 38 21 WZW 1031,4 20 0 0,0
22.02.2020 21:00:00 9,3 0,2 7,5 21 11 33 18 WZW 1030,9 20 0 0,0
22.02.2020 20:00:00 9,0 -0,1 6,6 15 8 27 15 WZW 1030,8 20 0 0,0
22.02.2020 19:00:00 9,4 0,0 7,5 13 7 25 13 ZW 1030,1 20 0 0,0
22.02.2020 18:00:00 10,4 0,4 8,5 15 8 31 17 ZW 1029,1 20 1 0,0
22.02.2020 17:00:00 11,4 1,1 10,6 12 7 29 15 WZW 1029,2 20 8 0,0
22.02.2020 16:00:00 11,4 3,9 13,3 18 10 33 18 ZZW 1028,2 20 60 0,0
22.02.2020 15:00:00 12,6 4,5 16,9 16 8 32 18 Z 1028,4 20 60 0,0
22.02.2020 14:00:00 12,4 4,8 14,8 16 9 35 19 Z 1028,2 20 60 0,0
22.02.2020 13:00:00 10,1 0,9 15,1 16 9 34 18 ZW 1029,7 20 60 0,0
22.02.2020 12:00:00 9,7 1,3 12,5 15 8 30 16 ZW 1030,2 20 60 0,0
22.02.2020 11:00:00 7,0 1,5 8,4 8 4 28 15 W 1032,4 20 60 0,0
22.02.2020 10:00:00 4,4 0,0 3,9 16 8 28 15 ZZW 1031,2 20 58 0,0
22.02.2020 09:00:00 2,1 -1,0 1,1 12 6 35 19 ZZW 1031,7 20 55 0,0
22.02.2020 08:00:00 2,6 -1,0 -1,2 17 9 26 14 ZZW 1030,2 20 0 0,0
22.02.2020 07:00:00 1,6 -1,3 -1,9 7 4 14 8 ZW 1031,4 20 0 0,0
22.02.2020 06:00:00 1,9 -1,4 -0,9 6 4 16 9 ZZW 1031,4 20 0 0,0
22.02.2020 05:00:00 2,8 -1,0 -0,2 10 6 20 11 ZW 1031,1 20 0 0,0
22.02.2020 04:00:00 1,9 -1,2 -0,9 11 6 18 10 WZW 1031,5 20 0 0,0
22.02.2020 03:00:00 2,0 -1,3 -1,6 10 6 16 9 WZW 1031,4 20 0 0,0
22.02.2020 02:00:00 1,8 -1,3 -2,1 7 4 13 7 ZW 1031,7 20 0 0,0
22.02.2020 01:00:00 2,2 -1,4 -1,9 8 4 15 8 ZW 1031,9 20 0 0,0
22.02.2020 00:00:00 2,5 -1,3 -2,0 8 4 13 7 ZW 1032,4 20 0 0,0
21.02.2020 23:00:00 2,2 -1,4 -2,1 6 3 10 6 ZZW 1032,6 20 0 0,0
21.02.2020 22:00:00 2,6 -1,2 -1,5 6 4 14 7 ZW 1032,5 20 0 0,0
21.02.2020 21:00:00 3,2 -1,0 -0,8 9 5 13 7 W 1032,3 20 0 0,0
21.02.2020 20:00:00 3,7 -0,7 -0,8 7 4 15 8 WZW 1032,1 20 0 0,0
21.02.2020 19:00:00 3,9 -0,9 -0,6 5 3 12 6 WZW 1032,2 20 0 0,0
21.02.2020 18:00:00 4,8 -0,2 2,1 6 3 18 10 ZZW 1031,6 20 0 0,0
21.02.2020 17:00:00 6,6 -0,2 6,9 8 4 16 9 ZW 1031,1 20 23 0,0
21.02.2020 16:00:00 7,0 -0,9 8,7 6 3 21 12 W 1031,2 20 30 0,0
21.02.2020 15:00:00 7,5 -1,0 10,3 10 6 23 13 WZW 1031,3 20 47 0,0
21.02.2020 14:00:00 7,4 -0,6 11,7 11 6 24 13 WZW 1031,9 20 56 0,0
21.02.2020 13:00:00 6,4 0,1 8,1 13 7 22 12 ZW 1032,4 20 46 0,0
21.02.2020 12:00:00 6,8 2,5 6,5 10 5 16 9 ZZW 1032,5 20 32 0,0
21.02.2020 11:00:00 4,7 1,5 5,0 10 5 16 9 ZW 1033,0 20 60 0,0
21.02.2020 10:00:00 2,4 1,5 1,0 7 4 13 7 ZW 1033,2 19 13 0,0
21.02.2020 09:00:00 1,7 1,1 -1,0 8 4 13 7 ZW 1033,0 20 56 0,0
21.02.2020 08:00:00 0,5 0,2 -1,1 6 3 16 9 ZW 1032,8 14 1 0,0
21.02.2020 07:00:00 1,1 0,8 -0,5 9 5 18 10 W 1031,6 20 0 0,0
21.02.2020 06:00:00 1,1 0,8 -0,3 8 4 16 9 WZW 1031,1 20 0 0,0

tt = temperatuur
td = dauwpunt
tt 5cm = temperatuur 5cm
ff = windsnelheid
fx = windstoten
dd = windrichting
ppp = luchtdruk
vv = zicht
sd = Zonneschijnduur
rr = neerslag

Weerstations in de omgeving